UAL1382 KORD-KMCO

Flight info

Callsign UAL1382
Flight time N/A
Altitude 39000
Route DENNT DARCY DREGS DUMGE SCOTO SWAPP Q79 THRSR ZJAYX GRNCH5
Aircraft B38M/M-SDE1FGHILORVWXY/HB1

Departure

Time 2026-05-06 16:52
Airport Chicago O'Hare International Airport (KORD)

Arrival

Time N/A
Airport Orlando International Airport (KMCO)
Time Latitude Longitude Altitude Speed Heading
2026-05-06 16:18 41.98020 -87.90929 671 ft 0 kts 280°
2026-05-06 16:41 41.98018 -87.90918 671 ft 3 kts 276°
2026-05-06 16:41 41.98018 -87.90892 671 ft 3 kts 257°
2026-05-06 16:41 41.98026 -87.90869 671 ft 3 kts 227°
2026-05-06 16:41 41.98041 -87.90855 671 ft 3 kts 197°
2026-05-06 16:42 41.98051 -87.90851 671 ft 0 kts 190°
2026-05-06 16:45 41.98044 -87.90853 671 ft 5 kts 190°
2026-05-06 16:45 41.97969 -87.90872 670 ft 17 kts 189°
2026-05-06 16:45 41.97803 -87.90908 671 ft 26 kts 188°
2026-05-06 16:46 41.97662 -87.90939 671 ft 15 kts 192°
2026-05-06 16:46 41.97572 -87.91057 671 ft 19 kts 240°
2026-05-06 16:46 41.97454 -87.91020 671 ft 27 kts 139°
2026-05-06 16:46 41.97319 -87.90859 671 ft 27 kts 138°
2026-05-06 16:47 41.97221 -87.90656 671 ft 26 kts 97°
2026-05-06 16:47 41.97168 -87.90525 671 ft 17 kts 158°
2026-05-06 16:47 41.97138 -87.90393 671 ft 16 kts 91°
2026-05-06 16:47 41.97137 -87.90233 671 ft 18 kts 91°
2026-05-06 16:48 41.97138 -87.90050 671 ft 21 kts 88°
2026-05-06 16:48 41.97152 -87.89838 671 ft 24 kts 73°
2026-05-06 16:48 41.97154 -87.89633 671 ft 25 kts 137°
2026-05-06 16:48 41.97066 -87.89456 672 ft 22 kts 114°
2026-05-06 16:49 41.97042 -87.89254 671 ft 23 kts 90°
2026-05-06 16:49 41.97042 -87.89030 671 ft 25 kts 90°
2026-05-06 16:49 41.97042 -87.88790 671 ft 27 kts 90°
2026-05-06 16:49 41.97044 -87.88560 671 ft 25 kts 91°
2026-05-06 16:50 41.97043 -87.88318 672 ft 27 kts 91°
2026-05-06 16:50 41.97040 -87.88089 672 ft 11 kts 95°
2026-05-06 16:50 41.97015 -87.88043 673 ft 6 kts 149°
2026-05-06 16:50 41.96977 -87.88019 673 ft 6 kts 173°
2026-05-06 16:51 41.96936 -87.88044 673 ft 7 kts 221°
2026-05-06 16:51 41.96885 -87.88104 673 ft 15 kts 220°
2026-05-06 16:51 41.96651 -87.88382 669 ft 86 kts 221°
2026-05-06 16:51 41.96011 -87.89147 672 ft 158 kts 221°
2026-05-06 16:52 41.95070 -87.90233 1065 ft 189 kts 223°
2026-05-06 16:52 41.94042 -87.91414 2066 ft 199 kts 220°
2026-05-06 16:52 41.92952 -87.92573 3163 ft 209 kts 220°
2026-05-06 16:52 41.91722 -87.93793 3814 ft 231 kts 216°
2026-05-06 16:53 41.90159 -87.94442 4707 ft 242 kts 182°
2026-05-06 16:53 41.88527 -87.93924 5839 ft 247 kts 158°
2026-05-06 16:53 41.86935 -87.92850 6562 ft 264 kts 160°
2026-05-06 16:53 41.85144 -87.92026 7229 ft 280 kts 166°
2026-05-06 16:54 41.83312 -87.91231 8258 ft 282 kts 165°
2026-05-06 16:54 41.81426 -87.90398 9203 ft 288 kts 166°
2026-05-06 16:54 41.79500 -87.89536 10148 ft 294 kts 166°
2026-05-06 16:54 41.77511 -87.88637 10772 ft 311 kts 166°
2026-05-06 16:55 41.75401 -87.87680 11336 ft 326 kts 166°
2026-05-06 16:55 41.73223 -87.86683 12094 ft 333 kts 167°
2026-05-06 16:55 41.71031 -87.85685 12986 ft 336 kts 167°
2026-05-06 16:55 41.68801 -87.84667 13808 ft 341 kts 168°
2026-05-06 16:56 41.66548 -87.83642 14567 ft 343 kts 168°
2026-05-06 16:56 41.64276 -87.82608 15330 ft 347 kts 168°
2026-05-06 16:56 41.61979 -87.81563 16063 ft 350 kts 169°
2026-05-06 16:56 41.59657 -87.80508 16736 ft 353 kts 169°
2026-05-06 16:57 41.57324 -87.79449 17402 ft 355 kts 169°
2026-05-06 16:57 41.54973 -87.78381 18049 ft 358 kts 170°
2026-05-06 16:57 41.52601 -87.77306 18649 ft 360 kts 170°
2026-05-06 16:57 41.50263 -87.76248 19252 ft 360 kts 170°
2026-05-06 16:58 41.47860 -87.75159 19734 ft 363 kts 171°
2026-05-06 16:58 41.45488 -87.74087 20243 ft 365 kts 171°
2026-05-06 16:58 41.43071 -87.73008 20767 ft 365 kts 174°
2026-05-06 16:58 41.40618 -87.72594 21242 ft 350 kts 189°
2026-05-06 16:59 41.38159 -87.72568 21679 ft 355 kts 189°
2026-05-06 16:59 41.35684 -87.72542 22191 ft 357 kts 189°
2026-05-06 16:59 41.33192 -87.72534 22714 ft 359 kts 189°
2026-05-06 16:59 41.30683 -87.72534 23165 ft 362 kts 191°
2026-05-06 17:00 41.28134 -87.72538 23595 ft 369 kts 191°
2026-05-06 17:00 41.25581 -87.72550 24157 ft 366 kts 192°
2026-05-06 17:00 41.23017 -87.72569 24508 ft 370 kts 192°
2026-05-06 17:00 41.20443 -87.72562 24918 ft 374 kts 189°
2026-05-06 17:01 41.17809 -87.72168 25362 ft 381 kts 186°
2026-05-06 17:01 41.15208 -87.71781 25750 ft 382 kts 187°
2026-05-06 17:01 41.12554 -87.71408 26120 ft 384 kts 188°
2026-05-06 17:01 41.09894 -87.71045 26453 ft 385 kts 188°
2026-05-06 17:02 41.07216 -87.70687 26751 ft 388 kts 189°
2026-05-06 17:02 41.04516 -87.70328 27123 ft 390 kts 189°
2026-05-06 17:02 41.01816 -87.69969 27493 ft 391 kts 190°
2026-05-06 17:02 40.99114 -87.69611 27831 ft 392 kts 190°
2026-05-06 17:03 40.96390 -87.69249 28162 ft 394 kts 191°
2026-05-06 17:03 40.93652 -87.68887 28496 ft 396 kts 191°
2026-05-06 17:03 40.90905 -87.68523 28813 ft 397 kts 191°
2026-05-06 17:03 40.88149 -87.68160 29072 ft 399 kts 192°
2026-05-06 17:04 40.85380 -87.67794 29396 ft 401 kts 192°
2026-05-06 17:04 40.82592 -87.67425 29710 ft 402 kts 192°
2026-05-06 17:04 40.79841 -87.67062 30000 ft 404 kts 192°
2026-05-06 17:04 40.77037 -87.66692 30255 ft 406 kts 192°
2026-05-06 17:05 40.74229 -87.66322 30502 ft 407 kts 192°
2026-05-06 17:05 40.71406 -87.65951 30746 ft 409 kts 192°
2026-05-06 17:05 40.68571 -87.65578 30979 ft 410 kts 192°
2026-05-06 17:05 40.65722 -87.65203 31204 ft 411 kts 192°
2026-05-06 17:06 40.62866 -87.64829 31418 ft 413 kts 193°
2026-05-06 17:06 40.60001 -87.64453 31640 ft 414 kts 193°
2026-05-06 17:06 40.57124 -87.64077 31857 ft 416 kts 193°
2026-05-06 17:06 40.54238 -87.63699 32085 ft 417 kts 193°
2026-05-06 17:07 40.51346 -87.63321 32308 ft 419 kts 193°
2026-05-06 17:07 40.48448 -87.62943 32515 ft 420 kts 193°
2026-05-06 17:07 40.45536 -87.62563 32735 ft 421 kts 193°
2026-05-06 17:07 40.42612 -87.62180 32880 ft 422 kts 193°
2026-05-06 17:08 40.39686 -87.61799 33100 ft 423 kts 193°
2026-05-06 17:08 40.36751 -87.61417 33292 ft 424 kts 193°
2026-05-06 17:08 40.33815 -87.61027 33562 ft 426 kts 191°
2026-05-06 17:08 40.30862 -87.60066 33816 ft 463 kts 176°
2026-05-06 17:09 40.27885 -87.58264 34094 ft 473 kts 173°
2026-05-06 17:09 40.24908 -87.56422 34241 ft 475 kts 173°
2026-05-06 17:09 40.21918 -87.54544 34374 ft 475 kts 173°
2026-05-06 17:09 40.18939 -87.52659 34601 ft 474 kts 171°
2026-05-06 17:10 40.15971 -87.50776 34795 ft 474 kts 172°
2026-05-06 17:10 40.13000 -87.48899 34968 ft 474 kts 172°
2026-05-06 17:10 40.10031 -87.47022 35133 ft 474 kts 172°
2026-05-06 17:10 40.07057 -87.45143 35261 ft 474 kts 172°
2026-05-06 17:11 40.04084 -87.43266 35424 ft 474 kts 172°
2026-05-06 17:11 40.01126 -87.41401 35579 ft 474 kts 172°
2026-05-06 17:11 39.98162 -87.39465 35673 ft 479 kts 171°
2026-05-06 17:11 39.95213 -87.37462 35887 ft 478 kts 171°
2026-05-06 17:12 39.92257 -87.35470 36070 ft 477 kts 171°
2026-05-06 17:12 39.89348 -87.33516 36240 ft 477 kts 171°
2026-05-06 17:12 39.86398 -87.31536 36363 ft 478 kts 171°
2026-05-06 17:12 39.83440 -87.29554 36504 ft 478 kts 171°
2026-05-06 17:13 39.80489 -87.27578 36641 ft 478 kts 171°
2026-05-06 17:13 39.77522 -87.25594 36785 ft 478 kts 171°
2026-05-06 17:13 39.74572 -87.23623 36893 ft 478 kts 171°
2026-05-06 17:13 39.71608 -87.21644 37021 ft 478 kts 171°
2026-05-06 17:14 39.68651 -87.19672 37153 ft 478 kts 171°
2026-05-06 17:14 39.65694 -87.17703 37282 ft 478 kts 171°
2026-05-06 17:14 39.62729 -87.15733 37384 ft 478 kts 172°
2026-05-06 17:14 39.59763 -87.13770 37506 ft 478 kts 172°
2026-05-06 17:15 39.56804 -87.11807 37616 ft 478 kts 172°
2026-05-06 17:15 39.50880 -87.07875 37724 ft 478 kts 172°
2026-05-06 17:15 39.47919 -87.05915 37825 ft 478 kts 172°
2026-05-06 17:16 39.44959 -87.03955 37936 ft 478 kts 172°
2026-05-06 17:16 39.39078 -87.00069 38106 ft 478 kts 172°
2026-05-06 17:17 39.33166 -86.96169 38280 ft 477 kts 172°
2026-05-06 17:17 39.27246 -86.92273 38335 ft 478 kts 172°
2026-05-06 17:18 39.21326 -86.88379 38490 ft 477 kts 172°
2026-05-06 17:18 39.15402 -86.84433 38575 ft 481 kts 171°
2026-05-06 17:19 39.10495 -86.81093 38651 ft 480 kts 171°
2026-05-06 17:19 39.04599 -86.77070 38776 ft 479 kts 169°
2026-05-06 17:20 38.98716 -86.73074 38925 ft 478 kts 170°
2026-05-06 17:20 38.95779 -86.71086 39035 ft 476 kts 170°
2026-05-06 17:20 38.92852 -86.69108 39046 ft 476 kts 170°
2026-05-06 17:21 38.86989 -86.65152 39046 ft 478 kts 169°
2026-05-06 17:21 38.81104 -86.61186 39008 ft 477 kts 169°
2026-05-06 17:22 38.75267 -86.57261 39035 ft 477 kts 169°
2026-05-06 17:22 38.69380 -86.53310 39033 ft 477 kts 169°
2026-05-06 17:23 38.63534 -86.49392 39027 ft 475 kts 169°
2026-05-06 17:23 38.57671 -86.45472 38972 ft 475 kts 169°
2026-05-06 17:24 38.51808 -86.41559 39009 ft 475 kts 169°
2026-05-06 17:24 38.45942 -86.37651 39005 ft 477 kts 169°
2026-05-06 17:25 38.40048 -86.33732 39003 ft 477 kts 169°
2026-05-06 17:25 38.34167 -86.29828 39000 ft 477 kts 169°
2026-05-06 17:26 38.28272 -86.25922 39008 ft 478 kts 169°
2026-05-06 17:26 38.22386 -86.22029 39000 ft 477 kts 169°
2026-05-06 17:27 38.16494 -86.18140 38990 ft 477 kts 169°
2026-05-06 17:27 38.10603 -86.14258 38960 ft 477 kts 169°
2026-05-06 17:28 38.04714 -86.10385 38992 ft 477 kts 169°
2026-05-06 17:28 37.98827 -86.06520 38993 ft 478 kts 169°
2026-05-06 17:29 37.92917 -86.02648 38971 ft 477 kts 169°
2026-05-06 17:29 37.87015 -85.98788 38920 ft 477 kts 169°
2026-05-06 17:30 37.81150 -85.94955 38984 ft 477 kts 169°
2026-05-06 17:30 37.75252 -85.91115 38971 ft 478 kts 169°
2026-05-06 17:31 37.69360 -85.87272 38967 ft 474 kts 169°
2026-05-06 17:31 37.63485 -85.83464 38906 ft 477 kts 169°
2026-05-06 17:32 37.57620 -85.79679 39105 ft 473 kts 168°
2026-05-06 17:32 37.54683 -85.77763 38867 ft 474 kts 169°
2026-05-06 17:32 37.51792 -85.75890 38972 ft 471 kts 169°
2026-05-06 17:33 37.45939 -85.72112 38976 ft 474 kts 169°
2026-05-06 17:33 37.40056 -85.68319 38980 ft 475 kts 169°
2026-05-06 17:34 37.34182 -85.64535 38987 ft 475 kts 169°
2026-05-06 17:34 37.28298 -85.60755 38985 ft 476 kts 169°
2026-05-06 17:35 37.22400 -85.56972 38985 ft 476 kts 169°
2026-05-06 17:35 37.16485 -85.53186 38982 ft 478 kts 169°
2026-05-06 17:36 37.07622 -85.47524 38981 ft 477 kts 169°